Regional Weather Roundup
Issued by NWS Charleston, SC

Current Version | Previous Version | Graphics & Text | Print | Product List | Glossary On
Versions: 1 2 3 4 5 6 7 8 9 10 11 12 13 14 15 16 17 18 19 20 21 22 23 24 25 26 27 28 29 30 31 32 33 34 35 36 37 38 39 40 41 42 43 44 45 46 47 48 49 50
000 ASUS42 KCHS 230010 RWRCHS REGIONAL WEATHER ROUNDUP NATIONAL WEATHER SERVICE CHARLESTON SC 800 PM EDT FRI AUG 22 2014 NOTE: "FAIR" INDICATES FEW OR NO CLOUDS BELOW 12,000 FEET WITH NO SIGNIFICANT WEATHER AND/OR OBSTRUCTIONS TO VISIBILITY. NOT ALL STATIONS ARE QUALITY CONTROLLED BY THE NATIONAL WEATHER SERVICE. USE DATA WITH CAUTION...ESPECIALLY DEWPOINT OBSERVATIONS. SCZ027-030-031-034>040-042>050-230100- ...SOUTH CAROLINA... CITY SKY/WX TMP DP RH WIND PRES REMARKS N CHARLESTON PTCLDY 89 79 72 S7 29.95R HX 104 6HR MIN TEMP: 89; 6HR MAX TEMP: 99; WATERFRONT PRK N/A 88 N/A N/A S9 N/A FORT JOHNSON NOT AVBL MOUNT PLEASANT FAIR 88 79 74 S7 29.95R HX 102 JOHNS ISLAND CLEAR 88 81 79 S8 29.95S HX 105 PINOPOLIS N/A 97 75 49 MISG 29.87R HX 109 MONCKS CORNER N/A 88 84 89 CALM 29.94R HX 112 SUMMERVILLE FAIR 88 81 79 CALM 29.95R HX 105 BEAUFORT MCAS CLEAR 90 78 68 SW3 29.95R HX 104 6HR MIN TEMP: 90; 6HR MAX TEMP: 100; BEAUFORT ARPT FAIR 88 81 79 S6 29.95R HX 105 HILTON HEAD IS PTCLDY 88 79 74 S5 29.97S HX 102 GEORGETOWN NOT AVBL WALTERBORO CLEAR 91 68 46 SW3 29.96R HX 95 ORANGEBURG PTCLDY 87 73 62 CALM 29.95R HX 94 6HR MIN TEMP: 87; 6HR MAX TEMP: 99; BARNWELL FAIR 91 72 52 SW3 29.96R HX 98 AIKEN FAIR 88 72 58 SW6 30.00S HX 94 MANNING FAIR 86 79 79 CALM 29.94R HX 99 KINGSTREE NOT AVBL COLUMBIA PTCLDY 95 65 37 N3 29.94R HX 97 6HR MIN TEMP: 95; 6HR MAX TEMP: 100; SUMTER CLEAR 91 70 48 NW2 29.94R HX 96 6HR MIN TEMP: 91; 6HR MAX TEMP: 98; FLORENCE CLEAR 87 75 67 CALM 29.93S HX 96 6HR MIN TEMP: 87; 6HR MAX TEMP: 98; MYRTLE BEACH PTCLDY 88 77 70 S12 29.95R HX 100 N MYRTLE BEACH PTCLDY 85 79 82 S8 29.94S HX 98 6HR MIN TEMP: 85; 6HR MAX TEMP: 90; $$ GAZ063-065-086>088-099>101-113>116-118-119-134-136>141-150-230100- ...GEORGIA... CITY SKY/WX TMP DP RH WIND PRES REMARKS SAVANNAH ARPT PTCLDY 92 73 53 CALM 29.96R HX 100 6HR MIN TEMP: 91; 6HR MAX TEMP: 100; HUNTER AAF CLEAR 89 76 65 S6 29.95R HX 100 6HR MIN TEMP: 89; 6HR MAX TEMP: 99; FORT STEWART PTCLDY 89 75 62 CALM 29.95R HX 99 6HR MIN TEMP: 89; 6HR MAX TEMP: 101; STATESBORO NOT AVBL SYLVANIA CLEAR 87 75 68 CALM 29.97R HX 96 CLAXTON MOCLDY 88 79 74 CALM 29.96R HX 102 THOMSON PTCLDY 89 79 71 CALM 30.01S HX 105 AUGUSTA-BUSH PTCLDY 93 68 43 N3 29.95R HX 97 6HR MIN TEMP: 93; 6HR MAX TEMP: 99; AUGUSTA-DANIEL CLEAR 94 68 42 NW3 29.97R HX 98 SWAINSBORO FAIR 95 73 49 CALM 29.98R HX 105 VIDALIA N/A 90 73 58 CALM 29.98S HX 98 ALMA CLEAR 91 72 53 W3 29.98R HX 98 6HR MIN TEMP: 91; 6HR MAX TEMP: 98; WAYCROSS CLEAR 93 76 58 CALM 29.97S HX 105 JESUP N/A 88 82 84 CALM 29.97S HX 108 BRUNSWICK CLEAR 90 72 55 S3 29.98S HX 96 SAINT SIMONS CLEAR 86 77 74 S6 29.97S HX 97 6HR MIN TEMP: 86; 6HR MAX TEMP: 98; $$ SCZ027-028-034-036>038-045-046-048>050-GAZ119-141-230100- ...LAKE AND SUPPLEMENTAL COASTAL OBSERVATIONS... STATION/POSITION TIME TEMP WIND PRES WAVE SWELL AIR SEA DIR/SP/G HT/PER HT/PER/DIR (UTC) (F) (DEG/KT/KT) (MB) (FT/S) (FT/S/D) UPR LAKE MARION NOT AVBL WINYAH BAY 2300 90 200/ 10 1013.0S LAKE MURRAY 2300 95 CALM 1013.2S ACE BASIN NERRS 2300 90 CALM 1014.0S FORT PULASKI 0000 87 190/ 3/ 6 1014.9R SAPELO ISLAND 2300 90 160/ 6 1015.0F $$ ANZ835-935-AMZ111-154-330-350-352-354-374-450-454-472-230100- ...C-MAN AND BUOY OBSERVATIONS... STATION/POSITION TIME TEMP WIND PRES WAVE SWELL AIR SEA DIR/SP/G HT/PER HT/PER/DIR (UTC) (F) (DEG/KT/KT) (MB) (FT/S) (FT/S/D) FOLLY BEACH CMAN 2300 87 200/ 11/ 13 1014.4R BUOY 41004 0000 85 85 200/ 12/ 14 1013.8R BUOY 41008 0000 86 86 180/ 10/ 12 1014.7R 1/ 9 5E ST. MARYS GA 0000 84 N/A 1/ 9 FRYING PAN BUOY NOT AVBL BUOY 41025 0000 80 360/ 6/ 8 1013.4R 2/ 8 2/ 20/ 8 CAPE LOOKOUT NC 2300 85 250/ 11/ 13 1013.4R BUOY 41002 NOT AVBL BUOY 41010 0000 85 86 190/ 6/ 6 1016.3R 2/ 9 2/100/ 9 BUOY 41012 NOT AVBL ST AUGUSTINE FL 0000 83 190/ 6/ 7 1016.4R CAPERS NEARSHORE 2300 87 220/ 12/ 14 N/A FRIPP NEARSHORE NOT AVBL $$

USA.gov is the U.S. government's official web portal to all federal, state and local government web resources and services.